SCP
0 0 0 0 0 0 0 0 0 0 0 0 0 0 0 0 0 0 0 0 0 0 0 0 0 0 0 0 0 0 0 0 0 0 0 0 0 0 0 0 0 0 0
0 0 0 0 0 0 0 0 0 0 0 0 0 0 0 0 0 0 0 0 0 0 0 0 0 0 0 0 0 0 0 0 0 0 0 0 0 0 0 0 0 0 0
0 0 0 0 0 0 0 0 0 0 0 0 0 0 0 0 0 0 0 0 0 0 0 0 0 0 0 0 0 0 0 0 0 0 0 0 0 0 0 0 0 0 0
0 0 0 0 0 0 0 0 0 0 0 0 0 0 0 0 0 0 0 0 0 0 0 0 0 0 0 0 0 0 0 0 0 0 0 0 0 0 0 0 0 0 0
0 0 0 0 0 0 0 0 0 0 0 0 0 0 0 0 0 0 0 0 0 0 0 0 0 0 0 0 0 0 0 0 0 0 0 0 0 0 0 0 0 0 0
0 0 0 0 0 0 0 0 0 0 0 0 0 0 0 0 0 0 0 0 0 0 0 0 0 0 0 0 0 0 0 0 0 0 0 0 0 0 0 0 0 0 0
0 0 0 0 0 0 0 0 0 0 0 0 0 0 0 0 0 0 0 0 0 0 0 0 0 0 0 0 0 0 0 0 0 0 0 0 0 0 0 0 0 0 0
0 0 0 0 0 0 0 0 0 0 0 0 0 0 0 0 0 0 0 0 0 0 0 0 0 0 0 0 0 0 0 0 0 0 0 0 0 0 0 0 0 0 0
0 0 0 0 0 0 0 0 0 0 0 0 0 0 0 0 0 0 0 0 0 0 0 0 0 0 0 0 0 0 0 0 0 0 0 0 0 0 0 0 0 0 0
0 0 0 0 0 0 0 0 0 0 0 0 0 0 0 0 0 0 0 0 0 0 0 0 0 0 0 0 0 0 0 0 0 0 0 0 0 0 0 0 0 0 0
0 0 0 0 0 0 0 0 0 0 0 0 0 0 0 0 0 0 0 0 0 0 0 0 0 0 0 0 0 0 0 0 0 0 0 0 0 0 0 0 0 0 0
0 0 0 0 0 0 0 0 0 0 0 0 0 0 0 0 0 0 0 0 0 0 0 0 0 0 0 0 0 0 0 0 0 0 0 0 0 0 0 0 0 0 0
0 0 0 0 0 0 0 0 0 0 0 0 0 0 0 0 0 0 0 0 0 0 0 0 0 0 0 0 0 0 0 0 0 0 0 0 0 0 0 0 0 0 0
0 0 0 0 0 0 0 0 0 0 0 0 0 0 0 0 0 0 0 0 0 0 0 0 0 0 0 0 0 0 0 0 0 0 0 0 0 0 0 0 0 0 0
0 0 0 0 0 0 0 0 0 0 0 0 0 0 0 0 0 0 0 0 0 0 0 0 0 0 0 0 0 0 0 0 0 0 0 0 0 0 0 0 0 0 0
0 0 0 0 0 0 0 0 0 0 0 0 0 0 0 0 0 0 0 0 0 0 0 0 0 0 0 0 0 0 0 0 0 0 0 0 0 0 0 0 0 0 0
0 0 0 0 0 0 0 0 0 0 0 0 0 0 0 0 0 0 0 0 0 0 0 0 0 0 0 0 0 0 0 0 0 0 0 0 0 0 0 0 0 0 0
0 0 0 0 0 0 0 0 0 0 0 0 0 0 0 0 0 0 0 0 0 0 0 0 0 0 0 0 0 0 0 0 0 0 0 0 0 0 0 0 0 0 0
0 0 0 0 0 0 0 0 0 0 0 0 0 0 0 0 0 0 0 0 0 0 0 0 0 0 0 0 0 0 0 0 0 0 0 0 0 0 0 0 0 0 0
0 0 -0 0 0 0 0 0 0 0 0 0 0 0 0 0 0 0 0 0 0 0 0 0 0 0 0 0 0 0 0 0 0 0 0 0 0 0 0 0 0 0 0
0 0 0 0 0 0 0 0 0 0 0 0 0 0 0 0 0 0 0 0 0 0 0 0 0 0 0 0 0 0 0 0 0 0 0 0 0 0 0 0 0 0 0
0 0 0 0 0 0 0 0 0 0 0 0 0 0 0 0 0 0 0 0 0 0 0 0 0 0 0 0 0 0 0 0 0 0 0 0 0 0 0 0 0 0 0
0 0 0 0 0 0 0 0 0 0 0 0 0 0 0 0 0 0 0 0 0 0 0 0 0 0 0 0 0 0 0 0 0 0 0 0 0 0 0 0 0 0 0
0 0 0 0 0 0 0 0 0 0 0 0 0 0 0 0 0 0 0 0 0 0 0 0 0 0 0 0 0 0 0 0 0 0 0 0 0 0 0 0 0 0 0
0 0 0 0 0 0 0 -0 -0 0 0 0 0 0 0 0 0 0 0 0 0 0 0 0 0 0 0 0 0 0 0 0 0 0 0 0 0 0 0 0 0 0 0
0 0 0 0 0 0 -0 -0 -0 0 0 0 0 0 0 0 0 0 0 0 0 0 0 0 0 0 0 0 0 0 0 0 0 0 0 0 0 0 0 0 0 0 0
Wind_Speed
4 3 2 2 2 2 2 2 2 1 1 1 1 3 4 4 4 4 3 10 11 11 12 13 13 13 12 12 12 12 12 12 11 10 10 10 11 11 11 11 11 11 11
4 3 3 2 2 2 2 2 2 2 1 1 1 2 3 4 4 4 3 6 11 11 12 12 13 13 13 13 13 13 12 12 11 11 10 10 10 11 11 11 11 11 11
4 4 3 2 2 2 2 2 1 1 1 1 0 1 2 3 4 5 4 3 4 9 11 12 12 12 13 13 13 13 13 12 12 12 11 11 11 11 11 11 11 11 11
5 3 3 2 2 2 2 2 1 1 1 0 0 1 1 2 3 4 4 4 3 4 8 12 12 12 12 13 13 14 13 13 12 12 12 12 12 12 11 12 12 11 11
5 4 2 2 3 3 2 1 1 1 1 0 1 1 1 1 2 3 3 4 4 3 3 7 10 10 12 13 13 14 14 14 14 14 14 14 14 13 13 13 13 12 12
4 4 3 2 3 3 2 1 1 1 1 0 1 1 1 1 1 1 2 2 3 4 4 4 4 5 9 10 11 12 13 14 14 15 15 15 15 14 14 14 14 13 13
4 4 3 3 3 3 2 2 1 2 1 1 2 2 3 2 0 1 1 1 2 2 3 4 3 2 3 8 10 11 12 13 13 14 14 14 15 15 15 16 15 15 15
5 5 4 3 3 3 3 3 2 2 2 2 2 2 3 4 4 2 1 1 1 1 2 3 3 3 3 2 4 9 11 12 12 13 14 14 14 14 15 16 16 16 16
5 5 5 4 4 3 3 3 3 3 2 2 2 3 3 1 2 3 2 1 1 1 1 1 2 3 3 2 2 6 9 10 11 12 12 13 13 13 14 16 16 17 17
5 5 5 5 4 3 4 3 4 3 3 2 2 2 2 3 2 2 4 3 3 1 2 1 1 2 2 2 2 4 6 6 8 9 10 10 12 12 13 15 17 17 17
4 5 5 5 5 4 4 4 4 4 3 3 2 2 3 3 2 3 1 4 4 3 2 1 1 1 1 1 1 2 2 3 4 6 6 8 9 11 12 14 17 18 18
3 5 6 5 4 4 4 4 4 4 3 3 3 2 2 2 1 2 1 1 2 3 3 2 1 1 1 1 1 3 3 3 4 4 6 7 8 10 11 12 15 16 18
3 4 5 4 4 4 4 4 4 4 3 3 3 2 2 1 1 2 2 0 2 3 3 3 2 2 1 0 1 2 2 3 4 5 6 7 8 9 10 11 13 15 15
4 5 5 5 4 4 4 4 3 2 3 3 3 3 2 1 1 2 2 2 2 3 3 4 3 3 2 1 2 2 2 4 5 6 7 8 9 9 9 11 12 12 13
5 5 5 5 4 4 4 4 3 2 2 2 2 2 2 1 1 2 2 2 3 1 2 3 3 3 3 2 3 2 3 5 7 8 9 9 10 10 9 10 10 11 11
5 6 5 5 5 4 4 4 2 2 3 1 1 2 1 0 1 2 2 1 2 3 2 3 3 3 3 3 3 3 4 7 8 9 9 10 11 11 11 11 10 11 11
7 6 6 5 5 4 4 3 2 2 2 1 1 1 1 1 0 1 1 1 1 2 2 3 3 3 3 4 5 4 4 4 4 9 9 10 10 10 11 11 11 11 11
6 6 6 5 4 4 4 4 3 2 3 2 2 1 1 1 1 1 0 0 0 1 2 3 3 3 4 4 4 4 4 3 3 7 8 9 9 9 9 10 11 11 12
6 5 5 5 4 4 4 4 4 3 3 3 3 3 3 2 2 2 2 2 2 1 1 2 3 2 3 3 3 4 4 3 4 5 6 6 7 8 9 10 11 12 12
6 6 5 5 5 4 4 4 4 4 3 3 3 4 4 4 5 4 3 3 3 2 1 1 3 3 3 3 2 2 4 3 4 4 5 5 6 8 9 10 11 12 12
7 6 5 5 4 4 5 5 4 4 4 3 3 4 4 6 8 6 4 4 4 3 2 2 3 3 3 3 3 2 3 4 4 3 3 4 4 4 6 8 10 12 13
6 6 6 6 5 4 7 8 6 4 4 4 4 4 5 6 8 10 10 9 8 6 5 4 4 4 6 5 4 3 3 3 4 3 2 5 3 5 5 5 9 13 13
6 6 6 6 5 6 8 9 9 5 5 5 5 5 5 5 6 5 7 9 9 12 12 7 6 8 7 6 4 5 5 5 6 5 2 5 4 6 6 7 12 13 13
6 6 6 6 5 7 10 10 10 6 5 5 6 6 6 7 7 6 6 6 7 8 9 9 9 10 9 8 7 7 6 5 6 5 4 5 5 6 7 6 11 14 13
6 6 5 6 6 7 11 12 9 4 5 7 7 7 7 7 10 10 6 7 8 8 10 13 14 14 15 15 10 4 4 4 6 6 4 4 5 5 5 6 8 12 12
7 7 6 6 7 7 10 12 11 4 5 5 5 6 9 10 11 10 6 6 8 9 7 7 8 10 11 12 13 9 8 6 6 6 5 5 4 3 4 4 4 5 5
Wind_Direction
153 148 149 156 164 166 171 174 182 178 163 140 121 133 148 159 169 180 196 200 195 194 190 188 189 191 189 187 185 183 182 181 180 178 178 177 176 174 174 173 170 166 165
140 139 141 147 158 166 167 167 170 157 160 129 122 151 163 172 183 191 199 210 207 200 199 197 195 197 197 195 193 192 191 189 186 185 185 185 183 181 180 180 178 174 172
134 138 138 145 157 151 136 124 121 107 106 105 138 193 172 182 191 193 197 206 212 211 208 208 207 204 203 202 200 199 198 196 192 191 191 190 188 187 186 185 184 181 179
132 128 130 139 135 119 117 118 107 94 79 60 287 265 212 197 197 197 197 202 205 212 215 214 213 211 210 209 208 206 204 202 198 198 198 197 195 193 191 190 189 188 187
125 122 122 122 116 102 97 118 95 121 133 279 266 254 248 219 206 201 198 205 206 210 212 223 218 214 216 217 216 214 211 208 205 205 205 204 203 200 198 196 194 194 194
121 118 115 104 105 98 89 87 91 94 137 220 306 342 302 269 213 203 209 207 209 214 209 219 223 226 224 222 221 220 219 217 215 212 211 212 210 206 203 201 200 199 199
118 113 110 101 98 104 110 106 94 64 26 48 56 7 350 353 323 247 224 203 212 211 198 204 209 218 234 232 228 226 225 225 223 219 217 215 214 210 208 206 205 204 204
119 117 112 106 98 96 81 72 79 78 22 52 104 79 17 357 350 347 326 210 225 214 212 208 198 204 224 234 238 234 233 234 230 225 222 220 218 214 212 212 210 208 208
116 111 110 104 99 103 99 82 81 94 67 21 72 125 121 203 319 340 358 12 3 14 297 252 214 214 215 215 235 245 240 239 238 236 230 226 222 221 220 219 217 214 213
122 115 110 106 105 102 99 88 82 88 94 55 23 45 117 153 128 357 343 352 1 359 319 299 265 238 225 218 228 240 251 249 247 245 240 237 233 228 227 229 226 222 218
120 116 110 107 106 100 98 87 82 80 87 93 65 45 52 50 72 113 3 335 343 330 318 291 285 280 247 216 214 219 242 255 256 260 257 255 250 241 236 237 236 233 228
106 112 111 109 109 106 103 98 94 91 87 87 78 70 84 84 71 103 120 318 320 312 328 337 339 321 301 228 216 184 201 233 250 259 264 264 265 258 249 247 246 244 239
131 136 120 118 115 116 112 103 93 90 90 90 88 83 84 99 138 135 124 82 340 317 338 347 343 342 348 339 280 237 239 248 256 264 269 268 268 264 258 253 252 252 249
156 150 134 129 125 122 113 103 96 97 93 88 84 84 76 60 82 119 140 130 42 344 344 325 329 350 349 326 295 284 302 277 270 271 274 273 270 268 264 257 255 255 256
151 146 138 132 127 123 120 109 102 106 106 99 95 82 76 42 59 73 103 132 135 106 308 305 321 326 327 303 289 280 279 277 274 272 272 271 270 269 268 263 258 255 255
138 139 137 136 133 128 128 117 113 117 123 132 127 95 69 39 41 51 72 91 127 150 225 276 276 288 312 314 290 273 271 280 279 278 273 272 269 267 266 265 262 255 252
141 142 143 143 144 145 142 138 147 147 146 160 148 143 196 186 88 23 55 76 101 139 203 280 277 289 305 309 311 303 287 279 282 285 285 282 276 271 267 265 264 261 257
149 149 147 148 157 160 161 164 177 164 168 186 199 174 216 192 188 237 201 246 228 188 186 265 292 301 297 296 296 300 300 299 290 295 294 292 288 282 277 273 268 264 260
156 155 153 161 171 175 179 184 182 181 183 194 198 197 213 192 219 232 226 229 241 234 188 221 274 283 291 304 320 314 311 310 305 304 306 307 305 299 289 281 276 270 263
162 167 170 176 182 185 184 187 188 191 201 212 213 212 215 208 217 224 227 228 225 237 240 243 270 283 285 295 315 308 314 311 305 307 309 304 308 309 299 289 281 274 265
174 175 176 185 189 187 193 192 196 199 206 225 238 237 235 232 226 220 217 215 211 219 230 243 262 277 280 288 278 266 277 291 289 275 293 296 303 301 298 292 284 274 269
177 177 185 191 199 206 202 202 194 199 204 214 235 251 258 253 246 241 239 227 210 208 217 223 239 248 259 253 253 254 260 286 292 276 273 285 285 283 280 273 273 273 271
181 183 192 195 205 214 212 211 208 195 205 216 226 239 253 251 249 245 253 254 243 235 222 214 230 242 248 243 239 255 250 244 250 254 257 279 277 276 275 278 275 275 275
183 188 197 200 204 219 217 218 218 209 219 230 231 231 238 254 254 241 246 257 256 251 239 230 230 242 243 242 228 236 248 257 264 260 211 258 272 268 276 273 274 272 272
186 191 193 197 204 223 222 223 218 208 228 243 245 241 236 246 257 251 241 251 264 267 259 243 235 242 247 249 244 240 248 248 270 272 212 219 258 268 271 268 269 269 270
190 192 202 205 207 219 225 224 215 204 228 247 255 252 245 246 256 256 235 237 254 264 267 273 259 258 255 258 253 230 228 236 248 265 239 206 244 254 284 269 263 267 273